Weather History for TTCP - October, 2011

Change the Weather History Date:

Saturday, October 29, 2011

  Actual Average Record
Temperature  
Mean Temperature 82 °F -  
Max Temperature 87 °F 86 °F 89 °F (1998)
Min Temperature 77 °F 76 °F 73 °F (1997)
Cooling Degree Days 17    
Growing Degree Days 32 (Base 50)    
Moisture  
Dew Point 75 °F    
Average Humidity 80    
Maximum Humidity 89    
Minimum Humidity 70    
Precipitation  
Precipitation 0.00 in - - ()
Sea Level Pressure  
Sea Level Pressure 29.89 in    
Wind  
Wind Speed 7 mph ()    
Max Wind Speed 16 mph    
Max Gust Speed -    
Visibility 6.2 miles    
Events      
Averages and records for this station are not official NWS values.
T = Trace of Precipitation, MM = Missing Value Source: Averaged Metar Reports

Daily Weather History Graph

Daily Weather History Graph

Search for Another Location

Airport or City:

Trip Planner

Search our weather history database for the weather conditions in past years. The results will help you decide how hot, cold, wet, or windy it might be!

Date:

Astronomy

Oct. 29, 2011 Rise Set
Actual Time 5:54 AM AST 5:39 PM AST
Civil Twilight 5:32 AM AST 6:01 PM AST
Nautical Twilight 5:07 AM AST 6:26 PM AST
Astronomical Twilight 4:42 AM AST 6:51 PM AST
Moon 8:39 AM AST (10/29) 8:29 PM AST (10/29)
Length of Visible Light 12h 28m
Length of Day
11h 45m
Waxing Crescent, 11% of the Moon is Illuminated
Oct 29
Waxing Crescent
Nov 2
First Quarter
Nov 10
Full
Nov 18
Last Quarter
Nov 25
New

Hourly Weather History & Observations

Time (AST) Temp. Heat Index Dew Point Humidity Pressure Visibility Wind Dir Wind Speed Gust Speed Precip Events Conditions
12:00 AM 80.6 °F 85.4 °F 73.4 °F 79% 29.89 in 6.2 mi ESE 16.1 mph - N/A   Partly Cloudy
1:00 AM 78.8 °F - 71.6 °F 78% 29.86 in 6.2 mi East 6.9 mph - N/A   Partly Cloudy
3:00 AM 77.0 °F - 71.6 °F 83% 29.83 in 6.2 mi Calm Calm - N/A   Partly Cloudy
4:00 AM 77.0 °F - 71.6 °F 83% 29.83 in 6.2 mi Calm Calm - N/A   Partly Cloudy
5:00 AM 77.0 °F - 71.6 °F 83% 29.83 in 6.2 mi Calm Calm - N/A   Partly Cloudy
6:00 AM 77.0 °F - 71.6 °F 83% 29.86 in 6.2 mi Calm Calm - N/A   Mostly Cloudy
7:00 AM 78.8 °F - 73.4 °F 83% 29.89 in 6.2 mi Calm Calm - N/A   Mostly Cloudy
8:00 AM 84.2 °F 96.1 °F 78.8 °F 84% 29.92 in 6.2 mi East 9.2 mph - N/A   Mostly Cloudy
9:00 AM 84.2 °F 96.1 °F 78.8 °F 84% 29.95 in 6.2 mi ESE 16.1 mph - N/A   Scattered Clouds
10:00 AM 86.0 °F 99.3 °F 78.8 °F 79% 29.95 in 6.2 mi SE 13.8 mph - N/A   Scattered Clouds
11:00 AM 86.0 °F 96.9 °F 77.0 °F 74% 29.95 in 6.2 mi ESE 13.8 mph - N/A   Mostly Cloudy
12:00 PM 86.0 °F 96.9 °F 77.0 °F 74% 29.92 in 6.2 mi ESE 11.5 mph - N/A   Mostly Cloudy
1:00 PM 86.0 °F 96.9 °F 77.0 °F 74% 29.89 in 6.2 mi ESE 12.7 mph - N/A   Mostly Cloudy
2:00 PM 87.8 °F 99.7 °F 77.0 °F 70% 29.89 in 6.2 mi ESE 10.4 mph - N/A   Mostly Cloudy
3:00 PM 86.0 °F 96.9 °F 77.0 °F 74% 29.86 in 6.2 mi ESE 11.5 mph - N/A   Mostly Cloudy
4:00 PM 84.2 °F 94.1 °F 77.0 °F 79% 29.86 in 6.2 mi ESE 10.4 mph - N/A   Mostly Cloudy
5:00 PM 82.4 °F 90.9 °F 77.0 °F 84% 29.89 in 6.2 mi ESE 10.4 mph - N/A   Mostly Cloudy
6:00 PM 82.4 °F 90.9 °F 77.0 °F 84% 29.89 in 6.2 mi East 8.1 mph - N/A   Mostly Cloudy
7:00 PM 80.6 °F 86.2 °F 75.2 °F 84% 29.89 in 6.2 mi Calm Calm - N/A   Mostly Cloudy
8:00 PM 80.6 °F 84.6 °F 71.6 °F 74% 29.89 in 6.2 mi ENE 5.8 mph - N/A   Mostly Cloudy
9:00 PM 80.6 °F 84.6 °F 71.6 °F 74% 29.92 in 6.2 mi NNE 5.8 mph - N/A   Mostly Cloudy
10:00 PM 80.6 °F 86.2 °F 75.2 °F 84% 29.92 in 6.2 mi NE 5.8 mph - N/A   Mostly Cloudy
11:00 PM 78.8 °F - 75.2 °F 89% 29.92 in 6.2 mi Calm Calm - N/A   Mostly Cloudy